OPS 4682 DEB, 51093

Orbit data source: Space-Track

OPS 4682 DEB, 51093 is space debris in LEO originally from a launch on Sat, 03 Apr 1965 UTC launched from the Air Force Western Test Range (AFWTR). Debris objects in space refer to the collection of defunct objects orbiting the Earth. Examples of debris include non-operational satellites, rocket bodies, and fragments generated from explosions, collisions, or faulty payload assembly.

Loading next visibility...
Identifier
51093, 1965-027FV
Orbit
LEO
Country
Flag of USUS
Related business
Manufacturer
Unknown
Mission
Spacecraft
Bus & Motor
Unknown
Mass
Unknown
Launch date (UTC)
1965-04-03 (61 years ago)
Launch vehicle
Unknown
Launch site
Air Force Western Test Range (AFWTR)
Object type
Payload
Rocket body
Debris
Shape & HBR
Unknown
Radar Cross Section
Small (<0.1 m²)

Expand to show TLE details & history
Last TLE update: 1 day ago

TLE from 1 day ago
0 OPS 4682 DEB
1 51093U 65027FV  26207.72874113  .00000580  00000-0  19939-2 0  9994
2 51093  90.2333   6.0815 0033270 334.1731  25.7727 12.96601590449227
Epoch: 2026-07-26T17:29Z
TLE epoch observation values (Epoch: 2026-07-26T17:29:23.233Z)
Latitude
-0.00003°
Longitude
159.3122°
Altitude
1,255.391 km
Speed
7.238 km/s
True Right ascension
00h 24m 19s
True Declination
0° 00' 00"
Sunlit
Object was in daylight at epoch
Visualization orbit readout
Latitude
Unknown
Longitude
Unknown
Altitude
Unknown
Speed
Unknown
Apparent Right ascension
Unknown
Apparent Declination
Unknown
Sunlit
N/A
Visualization observer readout
Local Sidereal Time
13:12:19
Azimuth
Unknown
Elevation
Unknown
Doppler factor
Unknown
Orbital elements
Apogee altitude
1,298.017 km
Perigee altitude
1,247.109 km
Semi-major axis
7,650.7 km
Eccentricity
0.00333
Inclination
90.2333°
RAAN
6.0815°
Arg. of periapsis
334.1731°
True anomaly
25.93909°
Mean anomaly
25.7727°
Eccentric anomaly
25.85583°
Mean motion
3.24333 °/min
Orbital period
111 mins
BSTAR
0.0019939
Loading maneuver chart data...
Computing Atmospheric mass density...
Loading historical data...
Loading historical data...
Loading historical data...
Loading historical data...
Loading historical data...
Loading historical data...
Loading historical data...

Documentation

Showing up to 5 results
|